Time,TemperatureF,DewpointF,PressureIn,WindDirection,WindDirectionDegrees,WindSpeedMPH,WindSpeedGustMPH,Humidity,HourlyPrecipIn,Conditions,Clouds,dailyrainin,SoftwareType,DateUTC
2013-05-10 00:01:00,53.2,42.6,29.70,NW,315,0.0,2.0,67,0.00,,,0.00,meteohub,2013-05-09 22:01:00,
2013-05-10 00:07:00,53.4,42.8,29.70,WNW,293,0.0,2.0,67,0.00,,,0.00,meteohub,2013-05-09 22:07:00,
2013-05-10 00:12:00,53.4,42.8,29.70,WNW,293,0.0,0.0,67,0.00,,,0.00,meteohub,2013-05-09 22:12:00,
2013-05-10 00:16:00,53.4,42.8,29.70,NE,45,0.0,0.0,67,0.00,,,0.00,meteohub,2013-05-09 22:16:00,
2013-05-10 00:22:00,53.4,42.8,29.70,North,0,0.0,0.0,67,0.00,,,0.00,meteohub,2013-05-09 22:22:00,
2013-05-10 00:27:00,53.2,42.6,29.70,NW,315,0.0,2.0,67,0.00,,,0.00,meteohub,2013-05-09 22:27:00,
2013-05-10 00:32:00,53.4,42.8,29.70,NNE,23,1.0,2.0,67,0.00,,,0.00,meteohub,2013-05-09 22:32:00,
2013-05-10 00:37:00,53.4,42.8,29.70,ENE,68,2.0,2.0,67,0.00,,,0.00,meteohub,2013-05-09 22:37:00,
2013-05-10 00:42:00,53.4,42.8,29.69,NW,315,0.0,2.0,67,0.00,,,0.00,meteohub,2013-05-09 22:42:00,
2013-05-10 00:47:00,53.6,43.0,29.69,NE,45,3.0,3.0,67,0.00,,,0.00,meteohub,2013-05-09 22:47:00,
2013-05-10 00:52:00,53.6,43.0,29.69,SE,135,0.0,3.0,67,0.00,,,0.00,meteohub,2013-05-09 22:52:00,
2013-05-10 00:57:00,53.4,42.8,29.68,WSW,248,2.0,3.0,67,0.00,,,0.00,meteohub,2013-05-09 22:57:00,
2013-05-10 01:02:00,53.1,42.4,29.68,ENE,68,0.0,3.0,67,0.00,,,0.00,meteohub,2013-05-09 23:02:00,
2013-05-10 01:07:00,53.1,42.8,29.68,NNW,338,2.0,2.0,68,0.00,,,0.00,meteohub,2013-05-09 23:07:00,
2013-05-10 01:12:00,53.1,42.8,29.68,WSW,248,0.0,2.0,68,0.00,,,0.00,meteohub,2013-05-09 23:12:00,
2013-05-10 01:17:00,53.2,43.0,29.68,NW,315,2.0,4.0,68,0.00,,,0.00,meteohub,2013-05-09 23:17:00,
2013-05-10 01:22:00,53.4,43.2,29.68,ENE,68,2.0,4.0,68,0.00,,,0.00,meteohub,2013-05-09 23:22:00,
2013-05-10 01:27:00,53.4,43.2,29.68,NNW,338,4.0,4.0,68,0.00,,,0.00,meteohub,2013-05-09 23:27:00,
2013-05-10 01:32:00,53.6,43.3,29.68,NNE,23,2.0,4.0,68,0.00,,,0.00,meteohub,2013-05-09 23:32:00,
2013-05-10 01:37:00,53.8,43.2,29.68,SW,225,3.0,4.0,67,0.00,,,0.00,meteohub,2013-05-09 23:37:00,
2013-05-10 01:42:00,53.6,42.4,29.68,WNW,293,4.0,4.0,66,0.00,,,0.00,meteohub,2013-05-09 23:42:00,
2013-05-10 01:47:00,53.8,42.6,29.68,West,270,1.0,4.0,66,0.00,,,0.00,meteohub,2013-05-09 23:47:00,
2013-05-10 01:52:00,53.8,42.6,29.68,North,0,3.0,4.0,66,0.00,,,0.00,meteohub,2013-05-09 23:52:00,
2013-05-10 01:57:00,54.0,42.4,29.67,NNW,338,4.0,4.0,65,0.00,,,0.00,meteohub,2013-05-09 23:57:00,
2013-05-10 02:02:00,54.1,42.6,29.67,NW,315,2.0,4.0,65,0.00,,,0.00,meteohub,2013-05-10 00:02:00,
2013-05-10 02:07:00,54.1,41.9,29.67,SSE,158,3.0,4.0,63,0.00,,,0.00,meteohub,2013-05-10 00:07:00,
2013-05-10 02:12:00,54.1,41.9,29.67,West,270,4.0,5.0,63,0.00,,,0.00,meteohub,2013-05-10 00:12:00,
2013-05-10 02:17:00,54.1,41.9,29.67,WSW,248,2.0,5.0,63,0.00,,,0.00,meteohub,2013-05-10 00:17:00,
2013-05-10 02:22:00,54.1,41.9,29.67,NNE,23,3.0,6.0,63,0.00,,,0.00,meteohub,2013-05-10 00:22:00,
2013-05-10 02:27:00,54.3,42.1,29.67,North,0,3.0,7.0,63,0.00,,,0.00,meteohub,2013-05-10 00:27:00,
2013-05-10 02:32:00,54.5,42.1,29.67,South,180,5.0,11.0,63,0.00,,,0.00,meteohub,2013-05-10 00:32:00,
2013-05-10 02:37:00,54.3,42.1,29.67,West,270,3.0,11.0,63,0.00,,,0.00,meteohub,2013-05-10 00:37:00,
2013-05-10 02:42:00,54.3,42.1,29.67,South,180,4.0,11.0,63,0.00,,,0.00,meteohub,2013-05-10 00:42:00,
2013-05-10 02:47:00,54.3,42.1,29.67,NW,315,11.0,11.0,63,0.00,,,0.00,meteohub,2013-05-10 00:47:00,
2013-05-10 02:52:00,54.3,42.1,29.67,WSW,248,8.0,11.0,63,0.00,,,0.00,meteohub,2013-05-10 00:52:00,
2013-05-10 02:57:00,54.3,42.1,29.66,West,270,4.0,11.0,63,0.00,,,0.00,meteohub,2013-05-10 00:57:00,
2013-05-10 03:02:00,54.3,42.4,29.66,NNW,338,4.0,11.0,64,0.00,,,0.00,meteohub,2013-05-10 01:02:00,
2013-05-10 03:07:00,54.3,42.4,29.66,NNW,338,4.0,8.0,64,0.00,,,0.00,meteohub,2013-05-10 01:07:00,
2013-05-10 03:12:00,54.3,42.4,29.66,NNW,338,4.0,5.0,64,0.00,,,0.00,meteohub,2013-05-10 01:12:00,
2013-05-10 03:17:00,54.3,42.4,29.65,NNW,338,3.0,4.0,64,0.00,,,0.00,meteohub,2013-05-10 01:17:00,
2013-05-10 03:22:00,54.1,42.6,29.65,WSW,248,6.0,6.0,65,0.00,,,0.00,meteohub,2013-05-10 01:22:00,
2013-05-10 03:27:00,54.1,43.9,29.65,NNE,23,3.0,6.0,68,0.00,,,0.00,meteohub,2013-05-10 01:27:00,
2013-05-10 03:32:00,53.6,43.7,29.65,WSW,248,3.0,6.0,69,0.00,,,0.00,meteohub,2013-05-10 01:32:00,
2013-05-10 03:38:00,53.6,43.7,29.65,South,180,6.0,9.0,69,0.00,,,0.00,meteohub,2013-05-10 01:38:00,
2013-05-10 03:43:00,53.8,43.9,29.65,WSW,248,4.0,9.0,69,0.00,,,0.00,meteohub,2013-05-10 01:43:00,
2013-05-10 03:48:00,53.6,43.3,29.65,North,0,3.0,9.0,68,0.00,,,0.00,meteohub,2013-05-10 01:48:00,
2013-05-10 03:53:00,53.6,43.3,29.65,South,180,4.0,7.0,68,0.00,,,0.00,meteohub,2013-05-10 01:53:00,
2013-05-10 03:58:00,53.8,43.5,29.65,West,270,6.0,7.0,68,0.00,,,0.00,meteohub,2013-05-10 01:58:00,
2013-05-10 04:03:00,53.8,43.9,29.65,WNW,293,4.0,7.0,69,0.00,,,0.00,meteohub,2013-05-10 02:03:00,
2013-05-10 04:08:00,53.8,43.9,29.65,WSW,248,5.0,6.0,69,0.00,,,0.00,meteohub,2013-05-10 02:08:00,
2013-05-10 04:13:00,53.8,43.9,29.65,NW,315,3.0,9.0,69,0.00,,,0.00,meteohub,2013-05-10 02:13:00,
2013-05-10 04:18:00,53.8,43.9,29.64,West,270,7.0,9.0,69,0.00,,,0.00,meteohub,2013-05-10 02:18:00,
2013-05-10 04:23:00,53.8,43.9,29.64,West,270,4.0,9.0,69,0.00,,,0.00,meteohub,2013-05-10 02:23:00,
2013-05-10 04:28:00,53.8,43.9,29.64,WSW,248,7.0,9.0,69,0.00,,,0.00,meteohub,2013-05-10 02:28:00,
2013-05-10 04:33:00,53.8,43.9,29.64,WSW,248,3.0,7.0,69,0.00,,,0.00,meteohub,2013-05-10 02:33:00,
2013-05-10 04:38:00,53.8,43.9,29.64,WNW,293,5.0,7.0,69,0.00,,,0.00,meteohub,2013-05-10 02:38:00,
2013-05-10 04:43:00,53.8,43.9,29.64,NW,315,6.0,7.0,69,0.00,,,0.00,meteohub,2013-05-10 02:43:00,
2013-05-10 04:48:00,53.8,43.9,29.64,South,180,4.0,9.0,69,0.00,,,0.00,meteohub,2013-05-10 02:48:00,
2013-05-10 04:53:00,53.6,44.1,29.64,WSW,248,4.0,9.0,70,0.00,,,0.00,meteohub,2013-05-10 02:53:00,
2013-05-10 04:58:00,53.6,44.4,29.63,South,180,2.0,9.0,71,0.00,,,0.00,meteohub,2013-05-10 02:58:00,
2013-05-10 05:03:00,53.6,44.8,29.63,West,270,6.0,8.0,72,0.00,,,0.00,meteohub,2013-05-10 03:03:00,
2013-05-10 05:08:00,53.4,44.6,29.63,WSW,248,8.0,8.0,72,0.00,,,0.00,meteohub,2013-05-10 03:08:00,
2013-05-10 05:13:00,53.4,45.0,29.63,SW,225,4.0,10.0,73,0.00,,,0.00,meteohub,2013-05-10 03:13:00,
2013-05-10 05:18:00,53.4,45.3,29.64,ESE,113,3.0,10.0,74,0.00,,,0.00,meteohub,2013-05-10 03:18:00,
2013-05-10 05:23:00,53.1,45.3,29.64,West,270,5.0,10.0,75,0.00,,,0.00,meteohub,2013-05-10 03:23:00,
2013-05-10 05:28:00,53.1,45.7,29.64,West,270,3.0,6.0,76,0.00,,,0.00,meteohub,2013-05-10 03:28:00,
2013-05-10 05:33:00,52.9,45.9,29.64,SSE,158,5.0,6.0,77,0.00,,,0.00,meteohub,2013-05-10 03:33:00,
2013-05-10 05:38:00,53.1,46.4,29.65,South,180,9.0,9.0,78,0.00,,,0.00,meteohub,2013-05-10 03:38:00,
2013-05-10 05:43:00,52.7,46.4,29.65,WNW,293,7.0,7.0,79,0.00,,,0.00,meteohub,2013-05-10 03:43:00,
2013-05-10 05:48:00,52.3,46.4,29.65,West,270,6.0,9.0,80,0.00,,,0.00,meteohub,2013-05-10 03:48:00,
2013-05-10 05:53:00,52.0,46.4,29.65,West,270,2.0,9.0,81,0.00,,,0.00,meteohub,2013-05-10 03:53:00,
2013-05-10 05:58:00,51.8,46.4,29.64,NNW,338,2.0,7.0,82,0.00,,,0.00,meteohub,2013-05-10 03:58:00,
2013-05-10 06:01:00,52.0,46.9,29.64,South,180,4.0,6.0,83,0.00,,,0.00,meteohub,2013-05-10 04:01:00,
2013-05-10 06:06:00,52.0,46.9,29.64,South,180,4.0,4.0,83,0.00,,,0.00,meteohub,2013-05-10 04:06:00,
2013-05-10 06:11:00,52.0,46.9,29.64,South,180,4.0,4.0,83,0.00,,,0.00,meteohub,2013-05-10 04:11:00,
2013-05-10 06:16:00,51.6,46.9,29.64,NW,315,5.0,6.0,84,0.00,,,0.00,meteohub,2013-05-10 04:16:00,
2013-05-10 06:21:00,51.6,46.9,29.65,WNW,293,4.0,6.0,84,0.00,,,0.00,meteohub,2013-05-10 04:21:00,
2013-05-10 06:26:00,51.6,47.3,29.65,West,270,3.0,6.0,85,0.00,,,0.00,meteohub,2013-05-10 04:26:00,
2013-05-10 06:31:00,51.6,47.3,29.65,WNW,293,2.0,5.0,85,0.00,,,0.00,meteohub,2013-05-10 04:31:00,
2013-05-10 06:36:00,51.8,47.5,29.65,SW,225,4.0,5.0,85,0.03,,,0.03,meteohub,2013-05-10 04:36:00,
2013-05-10 06:41:00,52.0,47.7,29.65,NW,315,2.0,5.0,85,0.03,,,0.03,meteohub,2013-05-10 04:41:00,
2013-05-10 06:46:00,52.0,47.7,29.65,West,270,4.0,7.0,85,0.03,,,0.03,meteohub,2013-05-10 04:46:00,
2013-05-10 06:51:00,52.0,47.7,29.65,SW,225,4.0,7.0,85,0.03,,,0.03,meteohub,2013-05-10 04:51:00,
2013-05-10 06:56:00,52.2,47.8,29.65,SW,225,3.0,7.0,85,0.03,,,0.03,meteohub,2013-05-10 04:56:00,
2013-05-10 07:01:00,52.3,48.0,29.66,WSW,248,1.0,6.0,85,0.03,,,0.03,meteohub,2013-05-10 05:01:00,
2013-05-10 07:06:00,52.3,47.7,29.66,NNE,23,4.0,4.0,84,0.03,,,0.03,meteohub,2013-05-10 05:06:00,
2013-05-10 07:11:00,52.7,48.0,29.66,NW,315,5.0,5.0,84,0.03,,,0.03,meteohub,2013-05-10 05:11:00,
2013-05-10 07:16:00,52.7,47.7,29.66,South,180,8.0,8.0,83,0.03,,,0.03,meteohub,2013-05-10 05:16:00,
2013-05-10 07:21:00,52.7,47.3,29.75,West,270,5.0,8.0,82,0.03,,,0.03,meteohub,2013-05-10 05:21:00,
2013-05-10 07:26:00,53.1,47.7,29.75,ESE,113,2.0,8.0,82,0.03,,,0.03,meteohub,2013-05-10 05:26:00,
2013-05-10 07:31:00,53.1,47.3,29.75,SW,225,3.0,8.0,81,0.00,,,0.03,meteohub,2013-05-10 05:31:00,
2013-05-10 07:36:00,53.1,47.3,29.78,SSW,203,5.0,6.0,81,0.00,,,0.03,meteohub,2013-05-10 05:36:00,
2013-05-10 07:41:00,53.2,47.3,29.78,WSW,248,4.0,7.0,80,0.00,,,0.03,meteohub,2013-05-10 05:41:00,
2013-05-10 07:46:00,53.4,47.7,29.78,WSW,248,6.0,7.0,81,0.00,,,0.03,meteohub,2013-05-10 05:46:00,
2013-05-10 07:51:00,53.6,47.8,29.78,SSE,158,2.0,7.0,81,0.00,,,0.03,meteohub,2013-05-10 05:51:00,
2013-05-10 07:56:00,53.6,47.7,29.80,SSE,158,6.0,6.0,80,0.00,,,0.03,meteohub,2013-05-10 05:56:00,
2013-05-10 08:01:00,53.6,47.3,29.80,NW,315,7.0,7.0,79,0.00,,,0.03,meteohub,2013-05-10 06:01:00,
2013-05-10 08:06:00,53.8,47.5,29.80,WNW,293,5.0,7.0,79,0.00,,,0.03,meteohub,2013-05-10 06:06:00,
2013-05-10 08:11:00,54.1,47.8,29.80,WSW,248,4.0,7.0,79,0.00,,,0.03,meteohub,2013-05-10 06:11:00,
2013-05-10 08:16:00,54.3,47.7,29.80,West,270,4.0,7.0,78,0.00,,,0.03,meteohub,2013-05-10 06:16:00,
2013-05-10 08:22:00,54.3,47.3,29.80,WNW,293,9.0,9.0,77,0.00,,,0.03,meteohub,2013-05-10 06:22:00,
2013-05-10 08:27:00,54.7,47.7,29.80,WSW,248,5.0,9.0,77,0.00,,,0.03,meteohub,2013-05-10 06:27:00,
2013-05-10 08:32:00,54.9,47.8,29.80,NE,45,3.0,9.0,77,0.00,,,0.03,meteohub,2013-05-10 06:32:00,
2013-05-10 08:37:00,54.5,47.1,29.80,WSW,248,7.0,9.0,76,0.00,,,0.03,meteohub,2013-05-10 06:37:00,
2013-05-10 08:42:00,54.5,47.1,29.81,West,270,6.0,7.0,76,0.00,,,0.03,meteohub,2013-05-10 06:42:00,
2013-05-10 08:47:00,55.0,47.3,29.81,WSW,248,5.0,7.0,75,0.00,,,0.03,meteohub,2013-05-10 06:47:00,
2013-05-10 08:52:00,55.2,47.5,29.81,South,180,10.0,10.0,75,0.00,,,0.03,meteohub,2013-05-10 06:52:00,
2013-05-10 08:57:00,55.4,47.7,29.81,West,270,5.0,10.0,75,0.00,,,0.03,meteohub,2013-05-10 06:57:00,
2013-05-10 09:02:00,55.8,47.7,29.81,West,270,4.0,10.0,74,0.00,,,0.03,meteohub,2013-05-10 07:02:00,
2013-05-10 09:07:00,56.1,48.0,29.81,SW,225,4.0,10.0,74,0.00,,,0.03,meteohub,2013-05-10 07:07:00,
2013-05-10 09:12:00,56.1,48.0,29.81,West,270,6.0,7.0,74,0.00,,,0.03,meteohub,2013-05-10 07:12:00,
2013-05-10 09:17:00,56.3,47.8,29.81,WSW,248,4.0,9.0,73,0.00,,,0.03,meteohub,2013-05-10 07:17:00,
2013-05-10 09:22:00,56.3,47.8,29.82,NW,315,3.0,9.0,73,0.00,,,0.03,meteohub,2013-05-10 07:22:00,
2013-05-10 09:27:00,56.3,47.8,29.82,SW,225,4.0,9.0,73,0.00,,,0.03,meteohub,2013-05-10 07:27:00,
2013-05-10 09:32:00,56.3,47.8,29.82,West,270,7.0,7.0,73,0.00,,,0.03,meteohub,2013-05-10 07:32:00,
2013-05-10 09:37:00,56.3,47.8,29.83,WSW,248,4.0,7.0,73,0.00,,,0.03,meteohub,2013-05-10 07:37:00,
2013-05-10 09:42:00,56.7,48.0,29.83,SSE,158,4.0,7.0,73,0.00,,,0.03,meteohub,2013-05-10 07:42:00,
2013-05-10 09:47:00,57.2,48.2,29.83,West,270,7.0,7.0,72,0.00,,,0.03,meteohub,2013-05-10 07:47:00,
2013-05-10 09:52:00,57.7,48.4,29.83,WNW,293,6.0,7.0,71,0.00,,,0.03,meteohub,2013-05-10 07:52:00,
2013-05-10 09:57:00,58.6,48.9,29.83,SE,135,5.0,7.0,70,0.00,,,0.03,meteohub,2013-05-10 07:57:00,
2013-05-10 10:02:00,59.5,49.3,29.83,SW,225,7.0,7.0,69,0.00,,,0.03,meteohub,2013-05-10 08:02:00,
2013-05-10 10:07:00,60.3,49.6,29.83,West,270,6.0,7.0,68,0.00,,,0.03,meteohub,2013-05-10 08:07:00,
2013-05-10 10:12:00,60.8,49.8,29.83,WSW,248,4.0,7.0,67,0.00,,,0.03,meteohub,2013-05-10 08:12:00,
2013-05-10 10:17:00,61.0,49.5,29.83,SW,225,4.0,11.0,66,0.00,,,0.03,meteohub,2013-05-10 08:17:00,
2013-05-10 10:22:00,61.0,49.5,29.83,WSW,248,4.0,11.0,66,0.00,,,0.03,meteohub,2013-05-10 08:22:00,
2013-05-10 10:27:00,61.2,49.6,29.83,West,270,4.0,8.0,66,0.00,,,0.03,meteohub,2013-05-10 08:27:00,
2013-05-10 10:32:00,61.7,49.8,29.83,West,270,4.0,8.0,65,0.00,,,0.03,meteohub,2013-05-10 08:32:00,
2013-05-10 10:37:00,61.3,49.5,29.84,SE,135,9.0,9.0,65,0.00,,,0.03,meteohub,2013-05-10 08:37:00,
2013-05-10 10:42:00,61.7,49.8,29.84,ESE,113,5.0,9.0,65,0.00,,,0.03,meteohub,2013-05-10 08:42:00,
2013-05-10 10:47:00,61.9,49.6,29.84,SSE,158,4.0,9.0,64,0.00,,,0.03,meteohub,2013-05-10 08:47:00,
2013-05-10 10:52:00,62.8,50.4,29.84,WSW,248,5.0,9.0,64,0.00,,,0.03,meteohub,2013-05-10 08:52:00,
2013-05-10 10:57:00,63.0,50.2,29.86,WNW,293,9.0,9.0,63,0.00,,,0.03,meteohub,2013-05-10 08:57:00,
2013-05-10 11:02:00,62.6,49.8,29.86,East,90,6.0,9.0,63,0.00,,,0.03,meteohub,2013-05-10 09:02:00,
2013-05-10 11:07:00,62.8,50.0,29.86,South,180,7.0,9.0,63,0.00,,,0.03,meteohub,2013-05-10 09:07:00,
2013-05-10 11:12:00,63.5,50.2,29.86,South,180,9.0,9.0,62,0.00,,,0.03,meteohub,2013-05-10 09:12:00,
2013-05-10 11:17:00,64.6,50.9,29.87,WSW,248,8.0,9.0,61,0.00,,,0.03,meteohub,2013-05-10 09:17:00,
2013-05-10 11:22:00,65.8,51.6,29.87,West,270,7.0,9.0,60,0.00,,,0.03,meteohub,2013-05-10 09:22:00,
2013-05-10 11:27:00,65.7,50.5,29.87,West,270,9.0,9.0,58,0.00,,,0.03,meteohub,2013-05-10 09:27:00,
2013-05-10 11:32:00,64.6,50.0,29.87,SSE,158,10.0,10.0,59,0.00,,,0.03,meteohub,2013-05-10 09:32:00,
2013-05-10 11:37:00,64.0,49.5,29.89,SW,225,5.0,10.0,59,0.00,,,0.03,meteohub,2013-05-10 09:37:00,
2013-05-10 11:42:00,64.0,49.8,29.89,WSW,248,6.0,10.0,60,0.00,,,0.03,meteohub,2013-05-10 09:42:00,
2013-05-10 11:47:00,63.7,49.5,29.89,NW,315,3.0,10.0,60,0.00,,,0.03,meteohub,2013-05-10 09:47:00,
2013-05-10 11:52:00,64.6,50.4,29.89,WSW,248,7.0,10.0,60,0.00,,,0.03,meteohub,2013-05-10 09:52:00,
2013-05-10 11:57:00,64.9,50.2,29.90,SW,225,4.0,10.0,59,0.00,,,0.03,meteohub,2013-05-10 09:57:00,
2013-05-10 12:02:00,65.8,50.7,29.90,ENE,68,8.0,10.0,58,0.00,,,0.03,meteohub,2013-05-10 10:02:00,
2013-05-10 12:07:00,65.8,50.7,29.90,ENE,68,8.0,8.0,58,0.00,,,0.03,meteohub,2013-05-10 10:07:00,
2013-05-10 12:13:00,67.8,51.1,29.90,ENE,68,7.0,8.0,55,0.00,,,0.03,meteohub,2013-05-10 10:13:00,
2013-05-10 12:18:00,68.4,51.1,29.91,South,180,9.0,9.0,54,0.00,,,0.03,meteohub,2013-05-10 10:18:00,
2013-05-10 12:23:00,67.8,50.5,29.91,West,270,9.0,9.0,54,0.00,,,0.03,meteohub,2013-05-10 10:23:00,
2013-05-10 12:28:00,67.1,49.8,29.91,WSW,248,6.0,9.0,54,0.00,,,0.03,meteohub,2013-05-10 10:28:00,
2013-05-10 12:33:00,66.9,50.2,29.91,West,270,9.0,9.0,55,0.00,,,0.03,meteohub,2013-05-10 10:33:00,
2013-05-10 12:38:00,67.1,50.4,29.93,SSW,203,11.0,11.0,55,0.00,,,0.03,meteohub,2013-05-10 10:38:00,
2013-05-10 12:43:00,67.5,50.7,29.93,NNW,338,5.0,11.0,55,0.00,,,0.03,meteohub,2013-05-10 10:43:00,
2013-05-10 12:48:00,67.5,50.2,29.93,South,180,5.0,11.0,54,0.00,,,0.03,meteohub,2013-05-10 10:48:00,
2013-05-10 12:53:00,68.0,50.2,29.93,WSW,248,12.0,12.0,53,0.00,,,0.03,meteohub,2013-05-10 10:53:00,
2013-05-10 12:58:00,67.5,50.2,29.93,SSE,158,4.0,12.0,54,0.00,,,0.03,meteohub,2013-05-10 10:58:00,
2013-05-10 13:03:00,67.1,50.4,29.93,NW,315,6.0,12.0,55,0.00,,,0.03,meteohub,2013-05-10 11:03:00,
2013-05-10 13:08:00,66.9,50.2,29.93,NW,315,7.0,12.0,55,0.00,,,0.03,meteohub,2013-05-10 11:08:00,
2013-05-10 13:13:00,68.5,50.7,29.93,SSE,158,7.0,9.0,53,0.00,,,0.03,meteohub,2013-05-10 11:13:00,
2013-05-10 13:18:00,68.2,50.4,29.93,SW,225,6.0,9.0,53,0.00,,,0.03,meteohub,2013-05-10 11:18:00,
2013-05-10 13:23:00,68.2,50.4,29.93,SSE,158,4.0,9.0,53,0.00,,,0.03,meteohub,2013-05-10 11:23:00,
2013-05-10 13:28:00,68.2,50.4,29.93,South,180,5.0,9.0,53,0.00,,,0.03,meteohub,2013-05-10 11:28:00,
2013-05-10 13:33:00,69.1,50.7,29.93,NNE,23,5.0,8.0,52,0.00,,,0.03,meteohub,2013-05-10 11:33:00,
2013-05-10 13:38:00,70.2,51.3,29.94,South,180,7.0,8.0,51,0.00,,,0.03,meteohub,2013-05-10 11:38:00,
2013-05-10 13:43:00,70.0,51.1,29.94,SW,225,10.0,10.0,51,0.00,,,0.03,meteohub,2013-05-10 11:43:00,
2013-05-10 13:48:00,70.9,50.7,29.94,WSW,248,6.0,13.0,49,0.00,,,0.03,meteohub,2013-05-10 11:48:00,
2013-05-10 13:53:00,72.0,51.3,29.94,SSW,203,8.0,13.0,48,0.00,,,0.03,meteohub,2013-05-10 11:53:00,
2013-05-10 13:58:00,72.3,50.9,29.95,NW,315,4.0,13.0,47,0.00,,,0.03,meteohub,2013-05-10 11:58:00,
2013-05-10 14:03:00,72.3,50.9,29.95,SW,225,5.0,8.0,47,0.00,,,0.03,meteohub,2013-05-10 12:03:00,
2013-05-10 14:08:00,72.0,50.7,29.95,SW,225,5.0,8.0,47,0.00,,,0.03,meteohub,2013-05-10 12:08:00,
2013-05-10 14:13:00,72.0,50.7,29.95,West,270,6.0,9.0,47,0.00,,,0.03,meteohub,2013-05-10 12:13:00,
2013-05-10 14:18:00,71.8,50.5,29.95,ESE,113,5.0,10.0,47,0.00,,,0.03,meteohub,2013-05-10 12:18:00,
2013-05-10 14:23:00,77.2,52.3,29.95,South,180,8.0,10.0,42,0.00,,,0.03,meteohub,2013-05-10 12:23:00,
2013-05-10 14:28:00,74.7,50.7,29.95,WSW,248,7.0,10.0,43,0.00,,,0.03,meteohub,2013-05-10 12:28:00,
2013-05-10 14:33:00,73.8,51.1,29.95,SW,225,4.0,9.0,45,0.00,,,0.03,meteohub,2013-05-10 12:33:00,
2013-05-10 14:38:00,75.6,51.4,29.96,South,180,6.0,9.0,43,0.00,,,0.03,meteohub,2013-05-10 12:38:00,
2013-05-10 14:43:00,75.0,51.1,29.96,South,180,6.0,9.0,43,0.00,,,0.03,meteohub,2013-05-10 12:43:00,
2013-05-10 14:48:00,74.7,51.3,29.96,WSW,248,6.0,9.0,44,0.00,,,0.03,meteohub,2013-05-10 12:48:00,
2013-05-10 14:53:00,74.3,50.4,29.96,SW,225,11.0,11.0,43,0.00,,,0.03,meteohub,2013-05-10 12:53:00,
2013-05-10 14:58:00,73.2,50.5,29.97,South,180,4.0,11.0,45,0.00,,,0.03,meteohub,2013-05-10 12:58:00,
2013-05-10 15:03:00,72.9,50.4,29.97,SW,225,5.0,11.0,45,0.00,,,0.03,meteohub,2013-05-10 13:03:00,
2013-05-10 15:08:00,72.7,50.2,29.97,SW,225,4.0,11.0,45,0.00,,,0.03,meteohub,2013-05-10 13:08:00,
2013-05-10 15:14:00,72.3,50.4,29.97,WSW,248,7.0,9.0,46,0.00,,,0.03,meteohub,2013-05-10 13:14:00,
2013-05-10 15:19:00,72.1,50.7,29.97,West,270,7.0,7.0,47,0.00,,,0.03,meteohub,2013-05-10 13:19:00,
2013-05-10 15:24:00,71.6,50.4,29.97,SW,225,7.0,7.0,47,0.00,,,0.03,meteohub,2013-05-10 13:24:00,
2013-05-10 15:29:00,71.8,51.1,29.97,West,270,6.0,9.0,48,0.00,,,0.03,meteohub,2013-05-10 13:29:00,
2013-05-10 15:34:00,72.1,51.4,29.97,SW,225,9.0,9.0,48,0.00,,,0.03,meteohub,2013-05-10 13:34:00,
2013-05-10 15:39:00,72.5,50.5,29.96,WSW,248,5.0,9.0,46,0.00,,,0.03,meteohub,2013-05-10 13:39:00,
2013-05-10 15:44:00,74.5,51.8,29.96,South,180,7.0,9.0,45,0.00,,,0.03,meteohub,2013-05-10 13:44:00,
2013-05-10 15:49:00,76.6,52.5,29.96,WSW,248,6.0,9.0,43,0.00,,,0.03,meteohub,2013-05-10 13:49:00,
2013-05-10 15:54:00,78.4,52.2,29.96,NE,45,8.0,8.0,40,0.00,,,0.03,meteohub,2013-05-10 13:54:00,
2013-05-10 15:59:00,79.7,51.8,29.97,WSW,248,6.0,8.0,38,0.00,,,0.03,meteohub,2013-05-10 13:59:00,
2013-05-10 16:04:00,79.7,51.8,29.97,West,270,8.0,9.0,38,0.00,,,0.03,meteohub,2013-05-10 14:04:00,
2013-05-10 16:09:00,80.8,52.2,29.97,West,270,7.0,9.0,37,0.00,,,0.03,meteohub,2013-05-10 14:09:00,
2013-05-10 16:14:00,79.2,50.7,29.97,SW,225,8.0,12.0,37,0.00,,,0.03,meteohub,2013-05-10 14:14:00,
2013-05-10 16:19:00,77.9,50.9,29.98,WSW,248,6.0,12.0,39,0.00,,,0.03,meteohub,2013-05-10 14:19:00,
2013-05-10 16:24:00,79.0,51.3,29.98,NW,315,6.0,12.0,38,0.00,,,0.03,meteohub,2013-05-10 14:24:00,
2013-05-10 16:29:00,79.7,51.8,29.98,SW,225,7.0,12.0,38,0.00,,,0.03,meteohub,2013-05-10 14:29:00,
2013-05-10 16:34:00,80.1,51.4,29.98,NW,315,7.0,13.0,37,0.00,,,0.03,meteohub,2013-05-10 14:34:00,
2013-05-10 16:39:00,78.6,50.9,29.98,South,180,7.0,13.0,38,0.00,,,0.03,meteohub,2013-05-10 14:39:00,
2013-05-10 16:44:00,76.5,50.4,29.98,WNW,293,4.0,13.0,40,0.00,,,0.03,meteohub,2013-05-10 14:44:00,
2013-05-10 16:49:00,76.5,50.4,29.98,SSW,203,11.0,11.0,40,0.00,,,0.03,meteohub,2013-05-10 14:49:00,
2013-05-10 16:54:00,74.7,50.0,29.98,WSW,248,4.0,11.0,42,0.00,,,0.03,meteohub,2013-05-10 14:54:00,
2013-05-10 16:59:00,72.9,49.6,29.98,SW,225,14.0,14.0,44,0.00,,,0.03,meteohub,2013-05-10 14:59:00,
2013-05-10 17:04:00,70.7,48.9,29.98,SW,225,9.0,14.0,46,0.00,,,0.03,meteohub,2013-05-10 15:04:00,
2013-05-10 17:09:00,69.1,48.6,29.98,West,270,10.0,14.0,48,0.00,,,0.03,meteohub,2013-05-10 15:09:00,
2013-05-10 17:14:00,67.8,48.6,29.98,SW,225,5.0,14.0,50,0.00,,,0.03,meteohub,2013-05-10 15:14:00,
2013-05-10 17:19:00,66.9,48.2,29.99,West,270,8.0,10.0,51,0.00,,,0.03,meteohub,2013-05-10 15:19:00,
2013-05-10 17:24:00,66.4,48.2,29.99,East,90,6.0,10.0,52,0.00,,,0.03,meteohub,2013-05-10 15:24:00,
2013-05-10 17:29:00,65.7,48.0,29.99,West,270,10.0,10.0,53,0.00,,,0.03,meteohub,2013-05-10 15:29:00,
2013-05-10 17:34:00,65.8,48.7,29.99,SW,225,4.0,10.0,54,0.00,,,0.03,meteohub,2013-05-10 15:34:00,
2013-05-10 17:39:00,65.7,48.6,29.98,South,180,5.0,10.0,54,0.00,,,0.03,meteohub,2013-05-10 15:39:00,
2013-05-10 17:44:00,64.9,48.4,29.98,WNW,293,7.0,10.0,55,0.00,,,0.03,meteohub,2013-05-10 15:44:00,
2013-05-10 17:49:00,64.6,48.6,29.98,WSW,248,3.0,8.0,56,0.00,,,0.03,meteohub,2013-05-10 15:49:00,
2013-05-10 17:54:00,64.2,48.7,29.98,West,270,10.0,10.0,57,0.00,,,0.03,meteohub,2013-05-10 15:54:00,
2013-05-10 17:59:00,63.7,48.2,29.99,WSW,248,4.0,10.0,57,0.00,,,0.03,meteohub,2013-05-10 15:59:00,
2013-05-10 18:04:00,63.7,48.6,29.99,WSW,248,2.0,11.0,58,0.00,,,0.03,meteohub,2013-05-10 16:04:00,
2013-05-10 18:09:00,63.5,48.4,29.99,SSE,158,6.0,11.0,58,0.00,,,0.03,meteohub,2013-05-10 16:09:00,
2013-05-10 18:14:00,63.5,48.9,29.99,WSW,248,9.0,11.0,59,0.00,,,0.03,meteohub,2013-05-10 16:14:00,
2013-05-10 18:19:00,63.3,48.4,29.99,WSW,248,4.0,9.0,58,0.00,,,0.03,meteohub,2013-05-10 16:19:00,
2013-05-10 18:24:00,63.1,48.2,29.99,NNE,23,5.0,9.0,58,0.00,,,0.03,meteohub,2013-05-10 16:24:00,
2013-05-10 18:29:00,63.0,48.0,29.99,WSW,248,4.0,9.0,58,0.00,,,0.03,meteohub,2013-05-10 16:29:00,
2013-05-10 18:34:00,62.6,47.7,29.99,SW,225,6.0,6.0,58,0.00,,,0.03,meteohub,2013-05-10 16:34:00,
2013-05-10 18:39:00,62.4,47.8,29.99,SW,225,7.0,7.0,59,0.00,,,0.03,meteohub,2013-05-10 16:39:00,
2013-05-10 18:44:00,62.2,47.7,29.99,WSW,248,4.0,6.0,59,0.00,,,0.03,meteohub,2013-05-10 16:44:00,
2013-05-10 18:49:00,61.7,47.3,29.99,SW,225,4.0,11.0,59,0.00,,,0.03,meteohub,2013-05-10 16:49:00,
2013-05-10 18:54:00,61.5,47.5,29.99,WSW,248,9.0,11.0,60,0.00,,,0.03,meteohub,2013-05-10 16:54:00,
2013-05-10 18:59:00,61.7,47.7,29.99,WSW,248,4.0,11.0,60,0.00,,,0.03,meteohub,2013-05-10 16:59:00,
2013-05-10 19:04:00,61.5,47.5,29.99,WSW,248,6.0,9.0,60,0.00,,,0.03,meteohub,2013-05-10 17:04:00,
2013-05-10 19:09:00,62.1,48.0,29.99,West,270,9.0,9.0,60,0.00,,,0.03,meteohub,2013-05-10 17:09:00,
2013-05-10 19:14:00,61.7,47.7,29.99,SSW,203,8.0,9.0,60,0.00,,,0.03,meteohub,2013-05-10 17:14:00,
2013-05-10 19:19:00,61.3,47.3,29.98,South,180,4.0,9.0,60,0.00,,,0.03,meteohub,2013-05-10 17:19:00,
2013-05-10 19:24:00,61.0,46.9,29.98,South,180,7.0,9.0,60,0.00,,,0.03,meteohub,2013-05-10 17:24:00,
2013-05-10 19:29:00,60.3,46.8,29.98,South,180,3.0,8.0,61,0.00,,,0.03,meteohub,2013-05-10 17:29:00,
2013-05-10 19:34:00,59.7,46.2,29.98,NNW,338,5.0,7.0,61,0.00,,,0.03,meteohub,2013-05-10 17:34:00,
2013-05-10 19:39:00,59.7,46.8,29.97,WNW,293,7.0,7.0,62,0.00,,,0.03,meteohub,2013-05-10 17:39:00,
2013-05-10 19:44:00,59.5,46.6,29.97,WNW,293,6.0,6.0,62,0.00,,,0.03,meteohub,2013-05-10 17:44:00,
2013-05-10 19:49:00,59.5,46.6,29.97,South,180,2.0,7.0,62,0.00,,,0.03,meteohub,2013-05-10 17:49:00,
2013-05-10 19:54:00,59.4,46.8,29.97,SW,225,4.0,7.0,63,0.00,,,0.03,meteohub,2013-05-10 17:54:00,
2013-05-10 19:59:00,59.4,46.8,29.97,SE,135,5.0,6.0,63,0.00,,,0.03,meteohub,2013-05-10 17:59:00,
2013-05-10 20:04:00,59.2,46.6,29.97,SSW,203,9.0,9.0,63,0.00,,,0.03,meteohub,2013-05-10 18:04:00,
2013-05-10 20:09:00,58.8,46.2,29.97,NW,315,7.0,9.0,63,0.00,,,0.03,meteohub,2013-05-10 18:09:00,
2013-05-10 20:14:00,58.6,46.0,29.97,NNW,338,4.0,9.0,63,0.00,,,0.03,meteohub,2013-05-10 18:14:00,
2013-05-10 20:20:00,58.5,45.9,29.97,SSE,158,4.0,9.0,63,0.00,,,0.03,meteohub,2013-05-10 18:20:00,
2013-05-10 20:25:00,58.5,46.4,29.97,NW,315,4.0,7.0,64,0.00,,,0.03,meteohub,2013-05-10 18:25:00,
2013-05-10 20:30:00,58.3,46.2,29.97,WSW,248,4.0,6.0,64,0.00,,,0.03,meteohub,2013-05-10 18:30:00,
2013-05-10 20:35:00,58.3,46.2,29.97,SW,225,8.0,8.0,64,0.00,,,0.03,meteohub,2013-05-10 18:35:00,
2013-05-10 20:40:00,58.1,46.0,29.93,West,270,5.0,5.0,64,0.00,,,0.03,meteohub,2013-05-10 18:40:00,
2013-05-10 20:45:00,58.1,46.0,29.93,NW,315,4.0,8.0,64,0.00,,,0.03,meteohub,2013-05-10 18:45:00,
2013-05-10 20:50:00,58.3,46.2,29.93,WSW,248,4.0,8.0,64,0.00,,,0.03,meteohub,2013-05-10 18:50:00,
2013-05-10 20:55:00,58.1,46.0,29.93,SSW,203,6.0,8.0,64,0.00,,,0.03,meteohub,2013-05-10 18:55:00,
2013-05-10 21:00:00,57.9,46.2,29.95,NW,315,3.0,4.0,65,0.00,,,0.03,meteohub,2013-05-10 19:00:00,
2013-05-10 21:05:00,57.9,46.2,29.95,WSW,248,3.0,6.0,65,0.00,,,0.03,meteohub,2013-05-10 19:05:00,
2013-05-10 21:10:00,57.7,46.0,29.95,NE,45,4.0,6.0,65,0.00,,,0.03,meteohub,2013-05-10 19:10:00,
2013-05-10 21:15:00,57.2,45.9,29.95,SW,225,4.0,6.0,66,0.00,,,0.03,meteohub,2013-05-10 19:15:00,
2013-05-10 21:20:00,57.0,45.9,29.89,SE,135,3.0,6.0,66,0.00,,,0.03,meteohub,2013-05-10 19:20:00,
2013-05-10 21:25:00,56.7,45.9,29.89,SW,225,5.0,7.0,67,0.00,,,0.03,meteohub,2013-05-10 19:25:00,
2013-05-10 21:30:00,56.3,45.5,29.89,WSW,248,3.0,7.0,67,0.00,,,0.03,meteohub,2013-05-10 19:30:00,
2013-05-10 21:35:00,56.3,45.5,29.89,WNW,293,2.0,7.0,67,0.00,,,0.03,meteohub,2013-05-10 19:35:00,
2013-05-10 21:40:00,55.9,45.5,29.85,ESE,113,2.0,5.0,68,0.00,,,0.03,meteohub,2013-05-10 19:40:00,
2013-05-10 21:45:00,56.3,45.9,29.85,SW,225,2.0,7.0,68,0.00,,,0.03,meteohub,2013-05-10 19:45:00,
2013-05-10 21:50:00,55.9,45.5,29.85,WSW,248,3.0,7.0,68,0.00,,,0.03,meteohub,2013-05-10 19:50:00,
2013-05-10 21:55:00,55.9,45.5,29.85,West,270,5.0,7.0,68,0.00,,,0.03,meteohub,2013-05-10 19:55:00,
2013-05-10 22:00:00,55.8,45.3,29.84,NNW,338,5.0,5.0,68,0.00,,,0.03,meteohub,2013-05-10 20:00:00,
2013-05-10 22:05:00,55.8,45.7,29.84,South,180,2.0,6.0,69,0.00,,,0.03,meteohub,2013-05-10 20:05:00,
2013-05-10 22:10:00,55.4,45.3,29.84,SW,225,2.0,6.0,69,0.00,,,0.03,meteohub,2013-05-10 20:10:00,
2013-05-10 22:15:00,55.6,46.0,29.84,NNE,23,3.0,6.0,70,0.00,,,0.03,meteohub,2013-05-10 20:15:00,
2013-05-10 22:20:00,55.2,45.7,29.83,WSW,248,3.0,3.0,70,0.00,,,0.03,meteohub,2013-05-10 20:20:00,
2013-05-10 22:25:00,55.0,45.9,29.83,WSW,248,3.0,3.0,71,0.00,,,0.03,meteohub,2013-05-10 20:25:00,
2013-05-10 22:30:00,55.2,46.0,29.83,South,180,3.0,3.0,71,0.00,,,0.03,meteohub,2013-05-10 20:30:00,
2013-05-10 22:35:00,55.0,46.2,29.83,West,270,3.0,3.0,72,0.00,,,0.03,meteohub,2013-05-10 20:35:00,
2013-05-10 22:40:00,55.0,46.2,29.83,WSW,248,2.0,3.0,72,0.00,,,0.03,meteohub,2013-05-10 20:40:00,
2013-05-10 22:45:00,55.0,46.2,29.83,WSW,248,3.0,5.0,72,0.00,,,0.03,meteohub,2013-05-10 20:45:00,
2013-05-10 22:50:00,55.2,46.4,29.83,West,270,4.0,5.0,72,0.00,,,0.03,meteohub,2013-05-10 20:50:00,
2013-05-10 22:55:00,55.2,46.4,29.83,SE,135,2.0,5.0,72,0.00,,,0.03,meteohub,2013-05-10 20:55:00,
2013-05-10 23:00:00,55.2,46.4,29.83,NW,315,3.0,4.0,72,0.00,,,0.03,meteohub,2013-05-10 21:00:00,
2013-05-10 23:05:00,55.0,45.9,29.83,West,270,2.0,4.0,71,0.00,,,0.03,meteohub,2013-05-10 21:05:00,
2013-05-10 23:10:00,55.2,46.0,29.83,NW,315,2.0,4.0,71,0.00,,,0.03,meteohub,2013-05-10 21:10:00,
2013-05-10 23:15:00,54.9,45.7,29.83,SSW,203,2.0,4.0,71,0.00,,,0.03,meteohub,2013-05-10 21:15:00,
2013-05-10 23:20:00,54.9,46.0,29.83,WSW,248,3.0,3.0,72,0.00,,,0.03,meteohub,2013-05-10 21:20:00,
2013-05-10 23:26:00,54.5,45.7,29.83,NW,315,1.0,4.0,72,0.00,,,0.03,meteohub,2013-05-10 21:26:00,
2013-05-10 23:31:00,54.1,45.3,29.83,North,0,2.0,4.0,72,0.00,,,0.03,meteohub,2013-05-10 21:31:00,
2013-05-10 23:36:00,54.1,45.3,29.83,WNW,293,0.0,4.0,72,0.00,,,0.03,meteohub,2013-05-10 21:36:00,
2013-05-10 23:41:00,53.6,45.1,29.83,NW,315,2.0,4.0,73,0.00,,,0.03,meteohub,2013-05-10 21:41:00,
2013-05-10 23:46:00,53.4,45.3,29.83,East,90,0.0,4.0,74,0.00,,,0.03,meteohub,2013-05-10 21:46:00,
2013-05-10 23:51:00,53.4,45.3,29.83,NW,315,0.0,3.0,74,0.00,,,0.03,meteohub,2013-05-10 21:51:00,
2013-05-10 23:56:00,53.1,45.3,29.83,SSE,158,2.0,2.0,75,0.00,,,0.03,meteohub,2013-05-10 21:56:00,